Location: Street
(51.1247°N, 2.7429°W)
Time: 12:51:06
(UTC+01:00)

NANOSAT C BR1 - Pass Details

Date: 10 April 2023
Orbit: 573 x 587 km, 98.0° (Epoch: 30 May)

Event Time Altitude Azimuth Distance (km) Brightness Sun altitude
Rises 04:55:00 0° 7° (N) 2,805 ? -14.2°
Reaches altitude 10° 04:57:20 10° 357° (N) 1,899 ? -13.9°
Maximum altitude 05:00:58 31° 295° (WNW) 1,017 ? -13.4°
Enters shadow 05:02:55 21° 249° (WSW) 1,329 ? -13.1°
